Regional Weather Roundup
Issued by NWS

Home | Current Version | Previous Version | Graphics & Text | Print | Product List | Glossary On
Versions: 1 2 3 4 5 6 7 8 9 10 11 12 13 14 15 16 17 18 19 20 21 22 23 24 25 26 27 28 29 30 31 32 33 34 35 36 37 38 39 40 41 42 43 44 45 46 47 48 49 50
248
ASUS45 KCYS 242110
RWRWY

WYOMING REGIONAL WEATHER ROUNDUP
NATIONAL WEATHER SERVICE CHEYENNE WY
300 PM MDT TUE MAY 24 2016

NOTE:  "FAIR" INDICATES FEW OR NO CLOUDS BELOW 12,000 FEET
WITH NO SIGNIFICANT WEATHER AND/OR OBSTRUCTIONS TO VISIBILITY.

WYZ001-242200-
YELLOWSTONE NATIONAL PARK

CITY           SKY/WX    TMP DP  RH WIND       PRES   REMARKS
LK YELLOWSTONE   N/A     47  31  53 CALM      29.95F
W YELLOWSTONE  NOT AVBL

$$
WYZ002>013-054>058-071-098>099-242200-
NORTHERN WYOMING

CITY           SKY/WX    TMP DP  RH WIND       PRES   REMARKS
JACKSON        PTSUNNY   48  37  66 S17       29.83F
CODY           CLOUDY    55  39  54 W8        29.88R
GREYBULL       FAIR      72  25  17 W8        29.77F
WORLAND        FAIR      72  29  20 SW8       29.77F
SHERIDAN       FAIR      66  38  35 E9        29.84F
BUFFALO        PTSUNNY   66  36  32 SE13G21   29.88F
GILLETTE       FAIR      70  34  26 SE10G21   29.85F
HULETT         MOCLDY    70  32  24 NW8       29.88F
NEWCASTLE      FAIR      68  34  28 SE9G18    29.87F

$$
WYZ014>020-022>026-101>103-242200-
CENTRAL WYOMING

CITY           SKY/WX    TMP DP  RH WIND       PRES   REMARKS
BIG PINEY      RAIN      40  37  89 NW20      29.98R FOG     WCI  30
PINEDALE       CLOUDY    43  34  70 W29G37    29.92R
DUBOIS         MOCLDY    55  27  33 SE13G22   29.86S
LANDER         CLOUDY    59  34  39 NW9       29.81F
RIVERTON       PTSUNNY   67  31  26 CALM      29.82F
CASPER         CLOUDY    63  30  28 SW13G20   29.85R
DOUGLAS        LGT RAIN  60  42  51 S13G32    29.85F

$$
WYZ021-027>030-104>119-242200-
SOUTHERN WYOMING

CITY           SKY/WX    TMP DP  RH WIND       PRES   REMARKS
EVANSTON       TSTM      46  35  65 SW5       29.93R
KEMMERER         N/A     54  32  43 S3        29.93F
FORT BRIDGER   DRIZZLE   50  37  62 S10       29.98R
ROCK SPRINGS   PTSUNNY   62  29  28 W17G31    29.86R
DIXON          FAIR      69  26  20 SW7G22    29.91F
RAWLINS        FAIR      67  20  16 SW20G38   29.90F
SARATOGA       FAIR      64  27  24 SW15G21   29.93S
LARAMIE        FAIR      63  38  39 SE29G39   29.91F
CHEYENNE       FAIR      66  42  41 S16G31    29.91F
TORRINGTON     FAIR      75  45  34 S28G37    29.81F
PINE BLUFFS    CLOUDY    68  45  42 SE21G28   29.89F

$$




USA.gov is the U.S. government's official web portal to all federal, state and local government web resources and services.